owner,sensor,date,latitude,longitude,vertical_datum,sea_water_temperature,qcFlag 
DISL,ioos:station:DISL:BSCA:1,2018-11-01T03:00:00Z,30.3288,-87.8293,0.0,23.66,11111222 
DISL,ioos:station:DISL:BSCA:1,2018-11-01T04:00:00Z,30.3288,-87.8293,0.0,23.61,11111222 
DISL,ioos:station:DISL:BSCA:1,2018-11-01T05:30:00Z,30.3288,-87.8293,0.0,23.46,11111222 
DISL,ioos:station:DISL:BSCA:1,2018-11-01T06:00:00Z,30.3288,-87.8293,0.0,23.43,11111222 
DISL,ioos:station:DISL:BSCA:1,2018-11-01T07:00:00Z,30.3288,-87.8293,0.0,23.38,11111222 
DISL,ioos:station:DISL:BSCA:1,2018-11-01T08:30:00Z,30.3288,-87.8293,0.0,23.3,11111222 
DISL,ioos:station:DISL:BSCA:1,2018-11-01T09:30:00Z,30.3288,-87.8293,0.0,23.22,11111222 
DISL,ioos:station:DISL:BSCA:1,2018-11-01T10:00:00Z,30.3288,-87.8293,0.0,23.19,11111222 
DISL,ioos:station:DISL:BSCA:1,2018-11-01T11:00:00Z,30.3288,-87.8293,0.0,23.16,11111222 
DISL,ioos:station:DISL:BSCA:1,2018-11-01T12:30:00Z,30.3288,-87.8293,0.0,23.11,11111222 
DISL,ioos:station:DISL:BSCA:1,2018-11-01T13:30:00Z,30.3288,-87.8293,0.0,23.13,11111222 
DISL,ioos:station:DISL:BSCA:1,2018-11-01T14:30:00Z,30.3288,-87.8293,0.0,23.0,11111222 
DISL,ioos:station:DISL:BSCA:1,2018-11-01T15:00:00Z,30.3288,-87.8293,0.0,23.03,11111222 
DISL,ioos:station:DISL:BSCA:1,2018-11-01T16:30:00Z,30.3288,-87.8293,0.0,22.99,11111222 
DISL,ioos:station:DISL:BSCA:1,2018-11-01T17:30:00Z,30.3288,-87.8293,0.0,22.95,11111222 
DISL,ioos:station:DISL:BSCA:1,2018-11-01T18:00:00Z,30.3288,-87.8293,0.0,22.91,11111222 
DISL,ioos:station:DISL:BSCA:1,2018-11-01T19:00:00Z,30.3288,-87.8293,0.0,22.92,11111222 
DISL,ioos:station:DISL:BSCA:1,2018-11-01T20:30:00Z,30.3288,-87.8293,0.0,22.87,11111222 
DISL,ioos:station:DISL:BSCA:1,2018-11-01T21:30:00Z,30.3288,-87.8293,0.0,22.85,11111222 
DISL,ioos:station:DISL:BSCA:1,2018-11-01T22:00:00Z,30.3288,-87.8293,0.0,22.83,11111222 
DISL,ioos:station:DISL:BSCA:1,2018-11-01T23:00:00Z,30.3288,-87.8293,0.0,22.81,11111222 
DISL,ioos:station:DISL:BSCA:1,2018-11-02T00:30:00Z,30.3288,-87.8293,0.0,22.76,11111222 
DISL,ioos:station:DISL:BSCA:1,2018-11-02T01:00:00Z,30.3288,-87.8293,0.0,22.75,11111222 
DISL,ioos:station:DISL:BSCA:1,2018-11-02T02:00:00Z,30.3288,-87.8293,0.0,22.74,11111222 
DISL,ioos:station:DISL:BSCA:1,2018-11-02T03:00:00Z,30.3288,-87.8293,0.0,22.72,11111222 
DISL,ioos:station:DISL:BSCA:1,2018-11-02T04:00:00Z,30.3288,-87.8293,0.0,22.7,11111222 
DISL,ioos:station:DISL:BSCA:1,2018-11-02T05:00:00Z,30.3288,-87.8293,0.0,22.65,11111222 
DISL,ioos:station:DISL:BSCA:1,2018-11-02T06:30:00Z,30.3288,-87.8293,0.0,22.6,11111222 
DISL,ioos:station:DISL:BSCA:1,2018-11-02T07:00:00Z,30.3288,-87.8293,0.0,22.58,11111222 
DISL,ioos:station:DISL:BSCA:1,2018-11-02T08:30:00Z,30.3288,-87.8293,0.0,22.45,11111222 
DISL,ioos:station:DISL:BSCA:1,2018-11-02T09:30:00Z,30.3288,-87.8293,0.0,22.39,11111222 
DISL,ioos:station:DISL:BSCA:1,2018-11-02T10:00:00Z,30.3288,-87.8293,0.0,22.35,11111222 
DISL,ioos:station:DISL:BSCA:1,2018-11-02T11:00:00Z,30.3288,-87.8293,0.0,22.21,11111222 
DISL,ioos:station:DISL:BSCA:1,2018-11-02T12:30:00Z,30.3288,-87.8293,0.0,22.05,11111222 
DISL,ioos:station:DISL:BSCA:1,2018-11-02T13:30:00Z,30.3288,-87.8293,0.0,21.9,11111222 
DISL,ioos:station:DISL:BSCA:1,2018-11-02T14:00:00Z,30.3288,-87.8293,0.0,21.84,11111222 
DISL,ioos:station:DISL:BSCA:1,2018-11-02T15:00:00Z,30.3288,-87.8293,0.0,21.77,11111222 
DISL,ioos:station:DISL:BSCA:1,2018-11-02T16:30:00Z,30.3288,-87.8293,0.0,21.67,11111222 
DISL,ioos:station:DISL:BSCA:1,2018-11-02T17:30:00Z,30.3288,-87.8293,0.0,21.66,11111222 
DISL,ioos:station:DISL:BSCA:1,2018-11-02T18:00:00Z,30.3288,-87.8293,0.0,21.62,11111222 
DISL,ioos:station:DISL:BSCA:1,2018-11-02T19:00:00Z,30.3288,-87.8293,0.0,21.56,11111222 
DISL,ioos:station:DISL:BSCA:1,2018-11-02T20:00:00Z,30.3288,-87.8293,0.0,21.53,11111222 
DISL,ioos:station:DISL:BSCA:1,2018-11-02T21:30:00Z,30.3288,-87.8293,0.0,21.41,11111222 
DISL,ioos:station:DISL:BSCA:1,2018-11-02T22:00:00Z,30.3288,-87.8293,0.0,21.39,11111222 
DISL,ioos:station:DISL:BSCA:1,2018-11-02T23:00:00Z,30.3288,-87.8293,0.0,21.37,11111222 
DISL,ioos:station:DISL:BSCA:1,2018-11-03T00:00:00Z,30.3288,-87.8293,0.0,21.33,11111222 
DISL,ioos:station:DISL:BSCA:1,2018-11-03T01:00:00Z,30.3288,-87.8293,0.0,21.33,11111222 
DISL,ioos:station:DISL:BSCA:1,2018-11-03T02:00:00Z,30.3288,-87.8293,0.0,21.22,11111222 
DISL,ioos:station:DISL:BSCA:1,2018-11-03T03:00:00Z,30.3288,-87.8293,0.0,21.18,11111222 
DISL,ioos:station:DISL:BSCA:1,2018-11-03T04:30:00Z,30.3288,-87.8293,0.0,21.22,11111222 
DISL,ioos:station:DISL:BSCA:1,2018-11-03T05:00:00Z,30.3288,-87.8293,0.0,21.21,11111222 
DISL,ioos:station:DISL:BSCA:1,2018-11-03T06:00:00Z,30.3288,-87.8293,0.0,21.15,11111222 
DISL,ioos:station:DISL:BSCA:1,2018-11-03T07:00:00Z,30.3288,-87.8293,0.0,20.62,11111222 
DISL,ioos:station:DISL:BSCA:1,2018-11-03T08:30:00Z,30.3288,-87.8293,0.0,20.47,11111222 
DISL,ioos:station:DISL:BSCA:1,2018-11-03T09:30:00Z,30.3288,-87.8293,0.0,20.38,11111222 
DISL,ioos:station:DISL:BSCA:1,2018-11-03T10:00:00Z,30.3288,-87.8293,0.0,20.34,11111222 
DISL,ioos:station:DISL:BSCA:1,2018-11-03T11:00:00Z,30.3288,-87.8293,0.0,20.3,11111222 
DISL,ioos:station:DISL:BSCA:1,2018-11-03T12:30:00Z,30.3288,-87.8293,0.0,20.15,11111222 
DISL,ioos:station:DISL:BSCA:1,2018-11-03T13:00:00Z,30.3288,-87.8293,0.0,20.14,11111222 
DISL,ioos:station:DISL:BSCA:1,2018-11-03T14:00:00Z,30.3288,-87.8293,0.0,20.06,11111222 
DISL,ioos:station:DISL:BSCA:1,2018-11-03T15:00:00Z,30.3288,-87.8293,0.0,20.0,11111222 
DISL,ioos:station:DISL:BSCA:1,2018-11-03T16:30:00Z,30.3288,-87.8293,0.0,20.06,11111222 
DISL,ioos:station:DISL:BSCA:1,2018-11-03T17:30:00Z,30.3288,-87.8293,0.0,20.15,11111222 
DISL,ioos:station:DISL:BSCA:1,2018-11-03T18:00:00Z,30.3288,-87.8293,0.0,20.16,11111222 
DISL,ioos:station:DISL:BSCA:1,2018-11-03T19:00:00Z,30.3288,-87.8293,0.0,20.55,11111222 
DISL,ioos:station:DISL:BSCA:1,2018-11-03T20:30:00Z,30.3288,-87.8293,0.0,20.71,11111222 
DISL,ioos:station:DISL:BSCA:1,2018-11-03T21:30:00Z,30.3288,-87.8293,0.0,20.69,11111222 
DISL,ioos:station:DISL:BSCA:1,2018-11-03T22:00:00Z,30.3288,-87.8293,0.0,20.72,11111222 
DISL,ioos:station:DISL:BSCA:1,2018-11-03T23:00:00Z,30.3288,-87.8293,0.0,20.63,11111222 
DISL,ioos:station:DISL:BSCA:1,2018-11-04T00:30:00Z,30.3288,-87.8293,0.0,20.52,11111222 
DISL,ioos:station:DISL:BSCA:1,2018-11-04T01:30:00Z,30.3288,-87.8293,0.0,20.42,11111222 
DISL,ioos:station:DISL:BSCA:1,2018-11-04T02:00:00Z,30.3288,-87.8293,0.0,20.43,11111222 
DISL,ioos:station:DISL:BSCA:1,2018-11-04T03:00:00Z,30.3288,-87.8293,0.0,20.45,11111222 
DISL,ioos:station:DISL:BSCA:1,2018-11-04T04:30:00Z,30.3288,-87.8293,0.0,20.41,11111222 
DISL,ioos:station:DISL:BSCA:1,2018-11-04T05:00:00Z,30.3288,-87.8293,0.0,20.38,11111222 
DISL,ioos:station:DISL:BSCA:1,2018-11-04T06:00:00Z,30.3288,-87.8293,0.0,20.3,11111222 
DISL,ioos:station:DISL:BSCA:1,2018-11-04T08:00:00Z,30.3288,-87.8293,0.0,20.12,11111222 
DISL,ioos:station:DISL:BSCA:1,2018-11-04T09:00:00Z,30.3288,-87.8293,0.0,20.06,11111222 
DISL,ioos:station:DISL:BSCA:1,2018-11-04T10:00:00Z,30.3288,-87.8293,0.0,20.03,11111222 
DISL,ioos:station:DISL:BSCA:1,2018-11-04T11:00:00Z,30.3288,-87.8293,0.0,19.96,11111222 
DISL,ioos:station:DISL:BSCA:1,2018-11-04T12:00:00Z,30.3288,-87.8293,0.0,19.86,11111222 
DISL,ioos:station:DISL:BSCA:1,2018-11-04T13:00:00Z,30.3288,-87.8293,0.0,19.74,11111222 
DISL,ioos:station:DISL:BSCA:1,2018-11-04T14:00:00Z,30.3288,-87.8293,0.0,19.71,11111222 
DISL,ioos:station:DISL:BSCA:1,2018-11-04T15:30:00Z,30.3288,-87.8293,0.0,19.69,11111222 
DISL,ioos:station:DISL:BSCA:1,2018-11-04T16:00:00Z,30.3288,-87.8293,0.0,19.72,11111222 
DISL,ioos:station:DISL:BSCA:1,2018-11-04T17:00:00Z,30.3288,-87.8293,0.0,19.82,11111222 
DISL,ioos:station:DISL:BSCA:1,2018-11-04T18:30:00Z,30.3288,-87.8293,0.0,19.9,11111222 
DISL,ioos:station:DISL:BSCA:1,2018-11-04T19:00:00Z,30.3288,-87.8293,0.0,19.97,11111222 
DISL,ioos:station:DISL:BSCA:1,2018-11-04T20:00:00Z,30.3288,-87.8293,0.0,20.09,11111222 
DISL,ioos:station:DISL:BSCA:1,2018-11-04T21:30:00Z,30.3288,-87.8293,0.0,20.21,11111222 
DISL,ioos:station:DISL:BSCA:1,2018-11-04T22:00:00Z,30.3288,-87.8293,0.0,20.22,11111222 
DISL,ioos:station:DISL:BSCA:1,2018-11-04T23:00:00Z,30.3288,-87.8293,0.0,20.21,11111222 
DISL,ioos:station:DISL:BSCA:1,2018-11-05T00:00:00Z,30.3288,-87.8293,0.0,20.22,11111222 
DISL,ioos:station:DISL:BSCA:1,2018-11-05T01:30:00Z,30.3288,-87.8293,0.0,20.23,11111222 
DISL,ioos:station:DISL:BSCA:1,2018-11-05T02:00:00Z,30.3288,-87.8293,0.0,20.23,11111222 
DISL,ioos:station:DISL:BSCA:1,2018-11-05T03:00:00Z,30.3288,-87.8293,0.0,20.24,11111222 
DISL,ioos:station:DISL:BSCA:1,2018-11-05T04:00:00Z,30.3288,-87.8293,0.0,20.25,11111222 
DISL,ioos:station:DISL:BSCA:1,2018-11-05T05:30:00Z,30.3288,-87.8293,0.0,20.29,11111222 
DISL,ioos:station:DISL:BSCA:1,2018-11-05T06:00:00Z,30.3288,-87.8293,0.0,20.29,11111222 
DISL,ioos:station:DISL:BSCA:1,2018-11-05T07:00:00Z,30.3288,-87.8293,0.0,20.3,11111222 
DISL,ioos:station:DISL:BSCA:1,2018-11-05T08:00:00Z,30.3288,-87.8293,0.0,20.29,11111222 
DISL,ioos:station:DISL:BSCA:1,2018-11-05T09:30:00Z,30.3288,-87.8293,0.0,20.27,11111222 
DISL,ioos:station:DISL:BSCA:1,2018-11-05T10:00:00Z,30.3288,-87.8293,0.0,20.27,11111222 
DISL,ioos:station:DISL:BSCA:1,2018-11-05T11:00:00Z,30.3288,-87.8293,0.0,20.25,11111222 
DISL,ioos:station:DISL:BSCA:1,2018-11-05T12:00:00Z,30.3288,-87.8293,0.0,20.23,11111222 
DISL,ioos:station:DISL:BSCA:1,2018-11-05T13:30:00Z,30.3288,-87.8293,0.0,20.22,11111222 
DISL,ioos:station:DISL:BSCA:1,2018-11-05T14:00:00Z,30.3288,-87.8293,0.0,20.23,11111222 
DISL,ioos:station:DISL:BSCA:1,2018-11-05T15:00:00Z,30.3288,-87.8293,0.0,20.24,11111222 
DISL,ioos:station:DISL:BSCA:1,2018-11-05T16:00:00Z,30.3288,-87.8293,0.0,20.27,11111222 
DISL,ioos:station:DISL:BSCA:1,2018-11-05T17:30:00Z,30.3288,-87.8293,0.0,20.32,11111222 
DISL,ioos:station:DISL:BSCA:1,2018-11-05T18:00:00Z,30.3288,-87.8293,0.0,20.4,11111222 
DISL,ioos:station:DISL:BSCA:1,2018-11-05T19:00:00Z,30.3288,-87.8293,0.0,20.46,11111222 
DISL,ioos:station:DISL:BSCA:1,2018-11-05T20:00:00Z,30.3288,-87.8293,0.0,21.48,11111222 
DISL,ioos:station:DISL:BSCA:1,2018-11-05T21:30:00Z,30.3288,-87.8293,0.0,21.1,11111222 
DISL,ioos:station:DISL:BSCA:1,2018-11-05T22:00:00Z,30.3288,-87.8293,0.0,21.47,11111222 
DISL,ioos:station:DISL:BSCA:1,2018-11-05T23:00:00Z,30.3288,-87.8293,0.0,21.51,11111222 
DISL,ioos:station:DISL:BSCA:1,2018-11-06T00:00:00Z,30.3288,-87.8293,0.0,21.39,11111222 
DISL,ioos:station:DISL:BSCA:1,2018-11-06T01:30:00Z,30.3288,-87.8293,0.0,21.38,11111222 
DISL,ioos:station:DISL:BSCA:1,2018-11-06T02:00:00Z,30.3288,-87.8293,0.0,21.37,11111222 
DISL,ioos:station:DISL:BSCA:1,2018-11-06T03:00:00Z,30.3288,-87.8293,0.0,21.29,11111222 
DISL,ioos:station:DISL:BSCA:1,2018-11-06T04:00:00Z,30.3288,-87.8293,0.0,21.3,11111222 
DISL,ioos:station:DISL:BSCA:1,2018-11-06T05:30:00Z,30.3288,-87.8293,0.0,21.27,11111222 
DISL,ioos:station:DISL:BSCA:1,2018-11-06T06:00:00Z,30.3288,-87.8293,0.0,21.29,11111222 
DISL,ioos:station:DISL:BSCA:1,2018-11-06T07:00:00Z,30.3288,-87.8293,0.0,21.31,11111222 
DISL,ioos:station:DISL:BSCA:1,2018-11-06T08:00:00Z,30.3288,-87.8293,0.0,21.38,11111222 
DISL,ioos:station:DISL:BSCA:1,2018-11-06T09:30:00Z,30.3288,-87.8293,0.0,21.49,11111222 
DISL,ioos:station:DISL:BSCA:1,2018-11-06T10:00:00Z,30.3288,-87.8293,0.0,21.49,11111222 
DISL,ioos:station:DISL:BSCA:1,2018-11-06T11:00:00Z,30.3288,-87.8293,0.0,21.46,11111222 
DISL,ioos:station:DISL:BSCA:1,2018-11-06T12:00:00Z,30.3288,-87.8293,0.0,21.43,11111222 
DISL,ioos:station:DISL:BSCA:1,2018-11-06T13:30:00Z,30.3288,-87.8293,0.0,21.43,11111222 
DISL,ioos:station:DISL:BSCA:1,2018-11-06T14:00:00Z,30.3288,-87.8293,0.0,21.44,11111222 
DISL,ioos:station:DISL:BSCA:1,2018-11-06T15:00:00Z,30.3288,-87.8293,0.0,21.45,11111222 
DISL,ioos:station:DISL:BSCA:1,2018-11-06T16:00:00Z,30.3288,-87.8293,0.0,21.45,11111222 
DISL,ioos:station:DISL:BSCA:1,2018-11-06T17:30:00Z,30.3288,-87.8293,0.0,21.48,11111222 
DISL,ioos:station:DISL:BSCA:1,2018-11-06T18:30:00Z,30.3288,-87.8293,0.0,21.42,11111222 
DISL,ioos:station:DISL:BSCA:1,2018-11-06T19:30:00Z,30.3288,-87.8293,0.0,21.43,11111222 
DISL,ioos:station:DISL:BSCA:1,2018-11-06T20:00:00Z,30.3288,-87.8293,0.0,21.46,11111222 
DISL,ioos:station:DISL:BSCA:1,2018-11-06T21:30:00Z,30.3288,-87.8293,0.0,21.51,11111222 
DISL,ioos:station:DISL:BSCA:1,2018-11-06T22:30:00Z,30.3288,-87.8293,0.0,21.54,11111222 
DISL,ioos:station:DISL:BSCA:1,2018-11-06T23:00:00Z,30.3288,-87.8293,0.0,21.48,11111222 
DISL,ioos:station:DISL:BSCA:1,2018-11-07T00:00:00Z,30.3288,-87.8293,0.0,21.43,11111222 
DISL,ioos:station:DISL:BSCA:1,2018-11-07T01:30:00Z,30.3288,-87.8293,0.0,21.34,11111222 
DISL,ioos:station:DISL:BSCA:1,2018-11-07T02:00:00Z,30.3288,-87.8293,0.0,21.39,11111222 
DISL,ioos:station:DISL:BSCA:1,2018-11-07T03:00:00Z,30.3288,-87.8293,0.0,21.41,11111222 
DISL,ioos:station:DISL:BSCA:1,2018-11-07T04:00:00Z,30.3288,-87.8293,0.0,21.41,11111222 
DISL,ioos:station:DISL:BSCA:1,2018-11-07T05:30:00Z,30.3288,-87.8293,0.0,21.31,11111222 
DISL,ioos:station:DISL:BSCA:1,2018-11-07T06:00:00Z,30.3288,-87.8293,0.0,21.38,11111222 
DISL,ioos:station:DISL:BSCA:1,2018-11-07T07:00:00Z,30.3288,-87.8293,0.0,21.47,11111222 
DISL,ioos:station:DISL:BSCA:1,2018-11-07T08:00:00Z,30.3288,-87.8293,0.0,21.54,11111222 
DISL,ioos:station:DISL:BSCA:1,2018-11-07T09:30:00Z,30.3288,-87.8293,0.0,21.69,11111222 
DISL,ioos:station:DISL:BSCA:1,2018-11-07T10:00:00Z,30.3288,-87.8293,0.0,21.71,11111222 
DISL,ioos:station:DISL:BSCA:1,2018-11-07T11:30:00Z,30.3288,-87.8293,0.0,21.69,11111222 
DISL,ioos:station:DISL:BSCA:1,2018-11-07T12:00:00Z,30.3288,-87.8293,0.0,21.67,11111222 
DISL,ioos:station:DISL:BSCA:1,2018-11-07T13:30:00Z,30.3288,-87.8293,0.0,21.68,11111222 
DISL,ioos:station:DISL:BSCA:1,2018-11-07T14:30:00Z,30.3288,-87.8293,0.0,21.69,11111222 
DISL,ioos:station:DISL:BSCA:1,2018-11-07T15:00:00Z,30.3288,-87.8293,0.0,21.68,11111222 
DISL,ioos:station:DISL:BSCA:1,2018-11-07T16:00:00Z,30.3288,-87.8293,0.0,21.76,11111222 
DISL,ioos:station:DISL:BSCA:1,2018-11-07T17:30:00Z,30.3288,-87.8293,0.0,21.78,11111222 
DISL,ioos:station:DISL:BSCA:1,2018-11-07T18:00:00Z,30.3288,-87.8293,0.0,21.77,11111222 
DISL,ioos:station:DISL:BSCA:1,2018-11-07T19:00:00Z,30.3288,-87.8293,0.0,21.76,11111222 
DISL,ioos:station:DISL:BSCA:1,2018-11-07T20:00:00Z,30.3288,-87.8293,0.0,21.74,11111222 
DISL,ioos:station:DISL:BSCA:1,2018-11-07T21:30:00Z,30.3288,-87.8293,0.0,21.78,11111222 
DISL,ioos:station:DISL:BSCA:1,2018-11-07T22:00:00Z,30.3288,-87.8293,0.0,21.77,11111222 
DISL,ioos:station:DISL:BSCA:1,2018-11-07T22:30:00Z,30.3288,-87.8293,0.0,21.8,11111222 
DISL,ioos:station:DISL:BSCA:1,2018-11-08T06:00:00Z,30.3288,-87.8293,0.0,21.82,11111222 
DISL,ioos:station:DISL:BSCA:1,2018-11-08T07:00:00Z,30.3288,-87.8293,0.0,21.81,11111222 
DISL,ioos:station:DISL:BSCA:1,2018-11-08T08:00:00Z,30.3288,-87.8293,0.0,22.02,11111222 
DISL,ioos:station:DISL:BSCA:1,2018-11-08T09:30:00Z,30.3288,-87.8293,0.0,21.85,11111222 
DISL,ioos:station:DISL:BSCA:1,2018-11-08T10:00:00Z,30.3288,-87.8293,0.0,21.84,11111222 
DISL,ioos:station:DISL:BSCA:1,2018-11-08T11:00:00Z,30.3288,-87.8293,0.0,21.83,11111222 
DISL,ioos:station:DISL:BSCA:1,2018-11-08T12:00:00Z,30.3288,-87.8293,0.0,21.88,11111222 
DISL,ioos:station:DISL:BSCA:1,2018-11-08T13:30:00Z,30.3288,-87.8293,0.0,21.92,11111222 
DISL,ioos:station:DISL:BSCA:1,2018-11-08T14:00:00Z,30.3288,-87.8293,0.0,21.91,11111222 
DISL,ioos:station:DISL:BSCA:1,2018-11-08T15:00:00Z,30.3288,-87.8293,0.0,21.85,11111222 
DISL,ioos:station:DISL:BSCA:1,2018-11-08T16:30:00Z,30.3288,-87.8293,0.0,21.86,11111222 
DISL,ioos:station:DISL:BSCA:1,2018-11-08T17:30:00Z,30.3288,-87.8293,0.0,21.93,11111222 
DISL,ioos:station:DISL:BSCA:1,2018-11-08T18:30:00Z,30.3288,-87.8293,0.0,21.93,11111222 
DISL,ioos:station:DISL:BSCA:1,2018-11-08T19:00:00Z,30.3288,-87.8293,0.0,21.94,11111222 
DISL,ioos:station:DISL:BSCA:1,2018-11-08T20:00:00Z,30.3288,-87.8293,0.0,21.94,11111222 
DISL,ioos:station:DISL:BSCA:1,2018-11-08T21:30:00Z,30.3288,-87.8293,0.0,22.37,11111222 
DISL,ioos:station:DISL:BSCA:1,2018-11-08T22:00:00Z,30.3288,-87.8293,0.0,22.37,11111222 
DISL,ioos:station:DISL:BSCA:1,2018-11-08T23:00:00Z,30.3288,-87.8293,0.0,22.37,11111222 
DISL,ioos:station:DISL:BSCA:1,2018-11-09T00:00:00Z,30.3288,-87.8293,0.0,22.64,11111222 
DISL,ioos:station:DISL:BSCA:1,2018-11-09T01:00:00Z,30.3288,-87.8293,0.0,22.61,11111222 
DISL,ioos:station:DISL:BSCA:1,2018-11-09T02:00:00Z,30.3288,-87.8293,0.0,22.44,11111222 
DISL,ioos:station:DISL:BSCA:1,2018-11-09T03:00:00Z,30.3288,-87.8293,0.0,22.25,11111222 
DISL,ioos:station:DISL:BSCA:1,2018-11-09T04:00:00Z,30.3288,-87.8293,0.0,22.17,11111222 
DISL,ioos:station:DISL:BSCA:1,2018-11-09T05:00:00Z,30.3288,-87.8293,0.0,22.12,11111222 
DISL,ioos:station:DISL:BSCA:1,2018-11-09T06:00:00Z,30.3288,-87.8293,0.0,22.12,11111222 
DISL,ioos:station:DISL:BSCA:1,2018-11-09T07:00:00Z,30.3288,-87.8293,0.0,22.13,11111222 
DISL,ioos:station:DISL:BSCA:1,2018-11-09T08:00:00Z,30.3288,-87.8293,0.0,22.09,11111222 
DISL,ioos:station:DISL:BSCA:1,2018-11-10T06:00:00Z,30.3288,-87.8293,0.0,21.88,11111222 
DISL,ioos:station:DISL:BSCA:1,2018-11-10T07:00:00Z,30.3288,-87.8293,0.0,21.7,11111222 
DISL,ioos:station:DISL:BSCA:1,2018-11-10T08:00:00Z,30.3288,-87.8293,0.0,21.48,11111222 
DISL,ioos:station:DISL:BSCA:1,2018-11-10T08:30:00Z,30.3288,-87.8293,0.0,21.37,11111222 
DISL,ioos:station:DISL:BSCA:1,2018-11-10T10:00:00Z,30.3288,-87.8293,0.0,21.04,11111222 
DISL,ioos:station:DISL:BSCA:1,2018-11-10T11:00:00Z,30.3288,-87.8293,0.0,20.84,11111222 
DISL,ioos:station:DISL:BSCA:1,2018-11-10T12:00:00Z,30.3288,-87.8293,0.0,20.59,11111222 
DISL,ioos:station:DISL:BSCA:1,2018-11-10T13:00:00Z,30.3288,-87.8293,0.0,20.28,11111222 
DISL,ioos:station:DISL:BSCA:1,2018-11-10T14:00:00Z,30.3288,-87.8293,0.0,20.07,11111222 
DISL,ioos:station:DISL:BSCA:1,2018-11-10T15:00:00Z,30.3288,-87.8293,0.0,19.87,11111222 
DISL,ioos:station:DISL:BSCA:1,2018-11-10T16:00:00Z,30.3288,-87.8293,0.0,19.81,11111222 
DISL,ioos:station:DISL:BSCA:1,2018-11-10T17:00:00Z,30.3288,-87.8293,0.0,19.76,11111222 
DISL,ioos:station:DISL:BSCA:1,2018-11-10T18:00:00Z,30.3288,-87.8293,0.0,19.84,11111222 
DISL,ioos:station:DISL:BSCA:1,2018-11-10T19:00:00Z,30.3288,-87.8293,0.0,19.86,11111222 
DISL,ioos:station:DISL:BSCA:1,2018-11-10T20:00:00Z,30.3288,-87.8293,0.0,19.82,11111222 
DISL,ioos:station:DISL:BSCA:1,2018-11-10T21:00:00Z,30.3288,-87.8293,0.0,19.76,11111222 
DISL,ioos:station:DISL:BSCA:1,2018-11-10T22:30:00Z,30.3288,-87.8293,0.0,19.55,11111222 
DISL,ioos:station:DISL:BSCA:1,2018-11-11T01:30:00Z,30.3288,-87.8293,0.0,19.04,11111222 
DISL,ioos:station:DISL:BSCA:1,2018-11-11T02:00:00Z,30.3288,-87.8293,0.0,19.19,11111222 
DISL,ioos:station:DISL:BSCA:1,2018-11-11T03:00:00Z,30.3288,-87.8293,0.0,18.96,11111222 
DISL,ioos:station:DISL:BSCA:1,2018-11-11T04:00:00Z,30.3288,-87.8293,0.0,18.83,11111222 
DISL,ioos:station:DISL:BSCA:1,2018-11-11T05:00:00Z,30.3288,-87.8293,0.0,18.67,11111222 
DISL,ioos:station:DISL:BSCA:1,2018-11-11T06:00:00Z,30.3288,-87.8293,0.0,18.47,11111222 
DISL,ioos:station:DISL:BSCA:1,2018-11-11T07:00:00Z,30.3288,-87.8293,0.0,19.01,11111222 
DISL,ioos:station:DISL:BSCA:1,2018-11-11T08:00:00Z,30.3288,-87.8293,0.0,18.27,11111222 
DISL,ioos:station:DISL:BSCA:1,2018-11-11T09:00:00Z,30.3288,-87.8293,0.0,18.24,11111222 
DISL,ioos:station:DISL:BSCA:1,2018-11-11T10:00:00Z,30.3288,-87.8293,0.0,18.07,11111222 
DISL,ioos:station:DISL:BSCA:1,2018-11-11T11:00:00Z,30.3288,-87.8293,0.0,17.85,11111222 
DISL,ioos:station:DISL:BSCA:1,2018-11-11T12:00:00Z,30.3288,-87.8293,0.0,17.71,11111222 
DISL,ioos:station:DISL:BSCA:1,2018-11-11T13:00:00Z,30.3288,-87.8293,0.0,17.53,11111222 
DISL,ioos:station:DISL:BSCA:1,2018-11-11T14:00:00Z,30.3288,-87.8293,0.0,17.49,11111222 
DISL,ioos:station:DISL:BSCA:1,2018-11-11T15:00:00Z,30.3288,-87.8293,0.0,17.49,11111222 
DISL,ioos:station:DISL:BSCA:1,2018-11-11T16:00:00Z,30.3288,-87.8293,0.0,17.71,11111222 
DISL,ioos:station:DISL:BSCA:1,2018-11-11T17:00:00Z,30.3288,-87.8293,0.0,17.8,11111222 
DISL,ioos:station:DISL:BSCA:1,2018-11-11T18:00:00Z,30.3288,-87.8293,0.0,17.86,11111222 
DISL,ioos:station:DISL:BSCA:1,2018-11-11T19:00:00Z,30.3288,-87.8293,0.0,18.24,11111222 
DISL,ioos:station:DISL:BSCA:1,2018-11-11T20:00:00Z,30.3288,-87.8293,0.0,18.39,11111222 
DISL,ioos:station:DISL:BSCA:1,2018-11-11T21:30:00Z,30.3288,-87.8293,0.0,18.64,11111222 
DISL,ioos:station:DISL:BSCA:1,2018-11-11T22:00:00Z,30.3288,-87.8293,0.0,18.57,11111222 
DISL,ioos:station:DISL:BSCA:1,2018-11-11T23:00:00Z,30.3288,-87.8293,0.0,18.28,11111222 
DISL,ioos:station:DISL:BSCA:1,2018-11-12T00:00:00Z,30.3288,-87.8293,0.0,18.42,11111222 
DISL,ioos:station:DISL:BSCA:1,2018-11-12T01:00:00Z,30.3288,-87.8293,0.0,18.2,11111222 
DISL,ioos:station:DISL:BSCA:1,2018-11-12T02:00:00Z,30.3288,-87.8293,0.0,17.96,11111222 
DISL,ioos:station:DISL:BSCA:1,2018-11-12T03:00:00Z,30.3288,-87.8293,0.0,17.84,11111222 
DISL,ioos:station:DISL:BSCA:1,2018-11-12T04:00:00Z,30.3288,-87.8293,0.0,17.83,11111222 
DISL,ioos:station:DISL:BSCA:1,2018-11-12T05:00:00Z,30.3288,-87.8293,0.0,17.78,11111222 
DISL,ioos:station:DISL:BSCA:1,2018-11-12T06:00:00Z,30.3288,-87.8293,0.0,17.77,11111222 
DISL,ioos:station:DISL:BSCA:1,2018-11-12T07:00:00Z,30.3288,-87.8293,0.0,17.71,11111222 
DISL,ioos:station:DISL:BSCA:1,2018-11-12T08:00:00Z,30.3288,-87.8293,0.0,17.66,11111222 
DISL,ioos:station:DISL:BSCA:1,2018-11-12T09:30:00Z,30.3288,-87.8293,0.0,17.64,11111222 
DISL,ioos:station:DISL:BSCA:1,2018-11-12T10:00:00Z,30.3288,-87.8293,0.0,17.67,11111222 
DISL,ioos:station:DISL:BSCA:1,2018-11-12T11:00:00Z,30.3288,-87.8293,0.0,17.67,11111222 
DISL,ioos:station:DISL:BSCA:1,2018-11-12T12:00:00Z,30.3288,-87.8293,0.0,17.6,11111222 
DISL,ioos:station:DISL:BSCA:1,2018-11-12T13:00:00Z,30.3288,-87.8293,0.0,17.61,11111222 
DISL,ioos:station:DISL:BSCA:1,2018-11-12T14:00:00Z,30.3288,-87.8293,0.0,17.68,11111222 
DISL,ioos:station:DISL:BSCA:1,2018-11-12T15:00:00Z,30.3288,-87.8293,0.0,17.68,11111222 
DISL,ioos:station:DISL:BSCA:1,2018-11-12T16:00:00Z,30.3288,-87.8293,0.0,17.73,11111222 
DISL,ioos:station:DISL:BSCA:1,2018-11-12T17:00:00Z,30.3288,-87.8293,0.0,17.76,11111222 
DISL,ioos:station:DISL:BSCA:1,2018-11-12T18:00:00Z,30.3288,-87.8293,0.0,17.88,11111222 
DISL,ioos:station:DISL:BSCA:1,2018-11-12T19:00:00Z,30.3288,-87.8293,0.0,17.97,11111222 
DISL,ioos:station:DISL:BSCA:1,2018-11-12T20:00:00Z,30.3288,-87.8293,0.0,18.04,11111222 
DISL,ioos:station:DISL:BSCA:1,2018-11-12T21:00:00Z,30.3288,-87.8293,0.0,18.1,11111222 
DISL,ioos:station:DISL:BSCA:1,2018-11-12T22:00:00Z,30.3288,-87.8293,0.0,18.13,11111222 
DISL,ioos:station:DISL:BSCA:1,2018-11-12T23:00:00Z,30.3288,-87.8293,0.0,18.14,11111222 
DISL,ioos:station:DISL:BSCA:1,2018-11-13T00:00:00Z,30.3288,-87.8293,0.0,18.15,11111222 
DISL,ioos:station:DISL:BSCA:1,2018-11-13T01:30:00Z,30.3288,-87.8293,0.0,18.14,11111222 
DISL,ioos:station:DISL:BSCA:1,2018-11-13T02:00:00Z,30.3288,-87.8293,0.0,18.14,11111222 
DISL,ioos:station:DISL:BSCA:1,2018-11-13T03:00:00Z,30.3288,-87.8293,0.0,18.15,11111222 
DISL,ioos:station:DISL:BSCA:1,2018-11-13T04:00:00Z,30.3288,-87.8293,0.0,18.14,11111222 
DISL,ioos:station:DISL:BSCA:1,2018-11-13T05:00:00Z,30.3288,-87.8293,0.0,18.1,11111222 
DISL,ioos:station:DISL:BSCA:1,2018-11-13T06:00:00Z,30.3288,-87.8293,0.0,18.14,11111222 
DISL,ioos:station:DISL:BSCA:1,2018-11-13T07:00:00Z,30.3288,-87.8293,0.0,18.09,11111222 
DISL,ioos:station:DISL:BSCA:1,2018-11-13T08:00:00Z,30.3288,-87.8293,0.0,18.05,11111222 
DISL,ioos:station:DISL:BSCA:1,2018-11-13T09:00:00Z,30.3288,-87.8293,0.0,18.06,11111222 
DISL,ioos:station:DISL:BSCA:1,2018-11-13T10:00:00Z,30.3288,-87.8293,0.0,18.16,11111222 
DISL,ioos:station:DISL:BSCA:1,2018-11-13T11:00:00Z,30.3288,-87.8293,0.0,18.22,11111222 
DISL,ioos:station:DISL:BSCA:1,2018-11-13T12:00:00Z,30.3288,-87.8293,0.0,18.35,11111222 
DISL,ioos:station:DISL:BSCA:1,2018-11-13T13:00:00Z,30.3288,-87.8293,0.0,18.29,11111222 
DISL,ioos:station:DISL:BSCA:1,2018-11-13T14:00:00Z,30.3288,-87.8293,0.0,18.22,11111222 
DISL,ioos:station:DISL:BSCA:1,2018-11-13T15:00:00Z,30.3288,-87.8293,0.0,18.14,11111222 
DISL,ioos:station:DISL:BSCA:1,2018-11-13T17:00:00Z,30.3288,-87.8293,0.0,17.92,11111222 